Location: Oberkirch
(48.5323°N, 8.0787°E)
Time: 02:08:29
(UTC+00:00)

Injun/Solrad 3 - Visible Passes

Search period start: 07 February 2026 00:00
Search period end: 17 February 2026 00:00
Orbit: 873 x 983 km, 66.8° (Epoch: 6 February)

Date Brightness Start Highest point End Pass type
(mag) Time Alt. Az. Time Alt. Az. Time Alt. Az.
7 Feb 9.9 18:02:27 10° NNW 18:05:26 14° N 18:08:27 10° NE visible
7 Feb 9.6 19:49:06 10° NNW 19:52:06 22° N 19:52:06 22° N visible
7 Feb 10.6 21:35:17 10° NW 21:35:44 12° NW 21:35:44 12° NW visible
8 Feb 9.7 18:13:43 10° NNW 18:17:05 15° NNE 18:19:21 13° NE visible
8 Feb 9.5 20:00:02 10° NNW 20:03:00 25° N 20:03:00 25° N visible
8 Feb 10.7 21:46:22 10° NW 21:46:38 11° NW 21:46:38 11° NW visible
9 Feb 9.5 18:24:50 10° NNW 18:28:42 17° NNE 18:30:18 16° NE visible
9 Feb 9.4 20:11:00 10° NNW 20:13:56 27° N 20:13:56 27° N visible
9 Feb 10.7 21:57:34 10° NW 21:57:35 10° NW 21:57:35 10° NW visible
10 Feb 9.3 18:35:51 10° NNW 18:40:16 20° NNE 18:41:15 20° NE visible
10 Feb 9.4 20:21:58 10° NNW 20:24:54 29° NNW 20:24:54 29° NNW visible
11 Feb 9.1 18:46:49 10° NNW 18:51:44 25° NNE 18:52:15 24° NE visible
11 Feb 9.4 20:32:58 10° NW 20:35:54 30° NNW 20:35:54 30° NNW visible
12 Feb 9.7 17:11:21 10° NNW 17:14:36 15° NNE 17:17:54 10° NE visible
12 Feb 8.8 18:57:46 10° NNW 19:03:08 31° NE 19:03:17 31° NE visible
12 Feb 9.5 20:44:03 10° NW 20:46:56 30° NW 20:46:56 30° NW visible
13 Feb 9.6 17:22:30 10° NNW 17:26:14 16° NNE 17:30:00 10° ENE visible
13 Feb 8.4 19:08:43 10° NNW 19:14:22 40° NE 19:14:22 40° NE visible
13 Feb 9.7 20:55:12 10° NW 20:58:01 27° NW 20:58:01 27° NW visible
14 Feb 9.4 17:33:33 10° NNW 17:37:48 19° NNE 17:41:51 11° ENE visible
14 Feb 8.1 19:19:40 10° NNW 19:25:30 54° NE 19:25:30 54° NE visible
14 Feb 9.9 21:06:29 10° NW 21:09:10 24° WNW 21:09:10 24° WNW visible
15 Feb 9.2 17:44:31 10° NNW 17:49:18 23° NNE 17:53:03 14° ENE visible
15 Feb 7.8 19:30:41 10° NNW 19:36:43 74° NE 19:36:43 74° NE visible
15 Feb 10.1 21:17:57 10° NW 21:20:23 19° WNW 21:20:23 19° WNW visible
16 Feb 8.9 17:55:29 10° NNW 18:00:44 29° NE 18:04:20 17° E visible
16 Feb 7.8 19:41:43 10° NW 19:47:53 81° WSW 19:48:01 81° SW visible
16 Feb 10.4 21:29:50 10° WNW 21:31:41 15° W 21:31:41 15° W visible
